Weather reports worldwide

Advertisment
Bournemouth Airport, United Kingdom (3862): temperature & dewpoint: 29.07.2020 16:00:00 - 04.08.2020 16:00:00 (BST)Bournemouth Airport, United Kingdom (3862): temperature -20cm & temperature -100cm: 29.07.2020 16:00:00 - 04.08.2020 16:00:00 (BST)Bournemouth Airport, United Kingdom (3862): wind speed: 29.07.2020 16:00:00 - 04.08.2020 16:00:00 (BST)Bournemouth Airport, United Kingdom (3862): wind direction: 29.07.2020 16:00:00 - 04.08.2020 16:00:00 (BST)Bournemouth Airport, United Kingdom (3862): reduced air pressure: 29.07.2020 16:00:00 - 04.08.2020 16:00:00 (BST)Bournemouth Airport, United Kingdom (3862): visibility: 29.07.2020 16:00:00 - 04.08.2020 16:00:00 (BST)Bournemouth Airport, United Kingdom (3862): sunshine duration: 29.07.2020 16:00:00 - 04.08.2020 16:00:00 (BST)Bournemouth Airport, United Kingdom (3862): precipitation: 29.07.2020 16:00:00 - 04.08.2020 16:00:00 (BST)
Date & Time tt [°C] td [°C] tt -20cm [°C] tt -100cm [°C] ff [km/h] ff [kn] dd ppp [hPa] vv [km] sd [min] rr [mm]
04.08.2020 16:00:00 19,2 11,4 - - 24 13 SW 1016,3 10 24 0,0
04.08.2020 15:00:00 19,1 11,5 - - 24 13 WSW 1017,0 10 18 0,0
04.08.2020 14:00:00 19,6 11,0 - - 24 13 WSW 1017,3 10 12 0,0
04.08.2020 13:00:00 19,6 8,4 - - 22 12 SW 1017,5 10 30 0,0
04.08.2020 12:00:00 18,7 10,1 - - 18 10 SW 1017,8 30 6 0,0
04.08.2020 11:00:00 19,1 7,5 - - 13 7 SW 1017,7 10 48 0,0
04.08.2020 10:00:00 19,0 8,1 19,0 16,5 15 8 SW 1018,0 10 60 0,0
04.08.2020 09:00:00 15,9 9,0 - - 5 3 WSW 1018,1 30 60 0,0
04.08.2020 08:00:00 12,8 9,8 - - 4 2 WNW 1018,0 30 60 0,0
04.08.2020 07:00:00 9,6 8,3 - - 4 2 WNW 1017,8 10 36 0,0
04.08.2020 06:00:00 7,1 6,0 - - 5 3 WNW 1017,7 10 0 0,0
04.08.2020 05:00:00 7,7 6,7 - - 4 2 W 1017,9 28 0 0,0
04.08.2020 04:00:00 8,2 7,2 - - 2 1 NW 1018,0 30 0 0,0
04.08.2020 03:00:00 8,7 7,6 - - 5 3 W 1018,1 29 0 0,0
04.08.2020 02:00:00 10,3 8,7 - - 4 2 W 1018,3 30 0 0,0
04.08.2020 01:00:00 11,1 8,9 - - 5 3 W 1018,6 30 - 0,0
04.08.2020 00:00:00 12,4 9,1 - - 9 5 WNW 1018,5 35 0 0,0
03.08.2020 23:00:00 13,7 9,5 - - 11 6 WNW 1018,2 35 0 0,0
03.08.2020 22:00:00 15,3 9,5 - - 15 8 NW 1018,0 10 0 0,0
03.08.2020 21:00:00 17,0 9,4 - - 18 10 NW 1017,6 10 18 0,0
03.08.2020 20:00:00 19,6 8,1 - - 21 11 WNW 1016,9 30 60 0,0
03.08.2020 19:00:00 20,7 7,3 - - 18 10 NW 1016,4 10 42 0,0
03.08.2020 18:00:00 19,5 7,8 - - 21 11 NNW 1016,5 10 24 0,0
03.08.2020 17:00:00 20,9 6,7 - - 22 12 NW 1016,3 10 48 0,0
03.08.2020 16:00:00 22,0 6,5 - - 22 12 NW 1016,2 10 36 0,0
03.08.2020 15:00:00 20,9 6,2 - - 22 12 WNW 1016,5 10 30 0,0
03.08.2020 14:00:00 20,4 6,7 - - 22 12 NW 1016,7 35 36 0,0
03.08.2020 13:00:00 21,4 8,8 - - 21 11 NW 1017,0 10 36 0,0
03.08.2020 12:00:00 20,3 8,1 - - 18 10 NW 1017,1 10 48 0,0
03.08.2020 11:00:00 18,9 9,5 - - 15 8 NW 1017,0 30 48 0,0
03.08.2020 10:00:00 17,8 10,1 18,9 16,5 13 7 NNW 1017,1 10 60 0,0
03.08.2020 09:00:00 16,3 11,2 - - 11 6 NNW 1017,0 30 60 0,0
03.08.2020 08:00:00 14,0 11,4 - - 11 6 NNW 1016,8 10 60 0,0
03.08.2020 07:00:00 11,6 11,0 - - 8 4 NW 1016,8 10 24 0,0
03.08.2020 06:00:00 9,8 8,7 - - 9 5 NW 1016,5 10 0 0,0
03.08.2020 05:00:00 10,6 9,3 - - 4 2 WNW 1016,2 30 0 0,0
03.08.2020 04:00:00 11,6 10,2 - - 9 5 WNW 1016,2 30 0 0,0
03.08.2020 03:00:00 12,4 10,4 - - 11 6 WNW 1016,6 35 0 0,0
03.08.2020 02:00:00 11,8 9,3 - - 9 5 WNW 1016,7 35 0 0,0
03.08.2020 01:00:00 13,3 10,0 - - 15 8 WNW 1016,7 35 - 0,0
03.08.2020 00:00:00 14,6 10,5 - - 18 10 NW 1016,8 35 0 0,0
02.08.2020 23:00:00 15,6 11,3 - - 13 7 NW 1016,8 35 0 0,0
02.08.2020 22:00:00 15,6 11,7 - - 11 6 WNW 1016,8 35 0 0,0
02.08.2020 21:00:00 15,3 11,4 - - 9 5 N 1016,5 35 0 0,0
02.08.2020 20:00:00 17,7 12,8 - - 21 11 W 1016,6 30 0 0,0
02.08.2020 19:00:00 18,6 13,6 - - 15 8 WSW 1016,4 15 24 0,0
02.08.2020 18:00:00 19,7 12,9 - - 21 11 W 1016,5 10 30 0,0
02.08.2020 17:00:00 19,8 12,3 - - 26 14 WSW 1016,7 10 42 0,0
02.08.2020 16:00:00 21,2 12,6 - - 22 12 WSW 1017,1 10 6 0,0
02.08.2020 15:00:00 20,8 11,4 - - 26 14 WSW 1017,2 10 42 0,0
02.08.2020 14:00:00 22,3 12,1 - - 26 14 SSW 1017,2 10 54 0,0
02.08.2020 13:00:00 20,5 11,3 - - 16 9 WSW 1017,4 10 24 0,0
02.08.2020 12:00:00 19,4 11,0 - - 13 7 W 1018,0 10 18 0,0
02.08.2020 11:00:00 19,1 11,1 - - 11 6 WNW 1018,2 10 30 0,0
02.08.2020 10:00:00 18,5 12,1 19,0 16,5 11 6 W 1018,4 30 18 0,0
02.08.2020 09:00:00 17,6 12,2 - - 15 8 W 1018,5 10 48 0,0
02.08.2020 08:00:00 16,4 12,8 - - 13 7 W 1018,4 10 54 0,0
02.08.2020 07:00:00 13,4 12,2 - - 4 2 SW 1018,3 10 6 0,0
02.08.2020 06:00:00 11,4 10,3 - - 8 4 WSW 1018,1 10 0 0,0
02.08.2020 05:00:00 11,1 10,0 - - 5 3 WNW 1018,1 24 0 0,0
02.08.2020 04:00:00 10,1 8,5 - - 11 6 W 1018,1 23 0 0,0
02.08.2020 03:00:00 11,8 9,9 - - 9 5 W 1018,1 23 0 0,0
02.08.2020 02:00:00 12,3 10,1 - - 11 6 W 1018,2 20 0 0,0
02.08.2020 01:00:00 12,7 9,7 - - 5 3 W 1018,3 24 - 0,0
02.08.2020 00:00:00 13,0 9,5 - - 9 5 WNW 1018,3 25 0 0,0
01.08.2020 23:00:00 13,7 9,5 - - 5 3 WNW 1018,4 10 0 0,0
01.08.2020 22:00:00 15,2 9,6 - - 9 5 WNW 1018,1 10 0 0,0
01.08.2020 21:00:00 17,2 9,4 - - 15 8 NW 1017,4 10 36 0,0
01.08.2020 20:00:00 19,2 9,8 - - 21 11 NW 1016,9 10 60 0,0
01.08.2020 19:00:00 21,0 11,1 - - 18 10 WNW 1016,6 10 12 0,0
01.08.2020 18:00:00 20,2 13,1 - - 22 12 NW 1016,7 10 0 0,0
01.08.2020 17:00:00 21,1 14,5 - - 21 11 WSW 1016,4 10 6 0,0
01.08.2020 16:00:00 23,0 12,8 - - 16 9 WNW 1016,3 10 6 0,0
01.08.2020 15:00:00 22,5 12,9 - - 22 12 W 1016,5 23 18 0,0
01.08.2020 14:00:00 24,0 13,3 - - 22 12 W 1016,2 24 36 0,0
01.08.2020 13:00:00 22,7 14,0 - - 22 12 W 1016,3 25 42 0,0
01.08.2020 12:00:00 23,0 15,4 - - 16 9 SW 1016,4 10 42 0,0
01.08.2020 11:00:00 21,3 14,9 - - 18 10 WSW 1016,4 10 30 0,0
01.08.2020 10:00:00 19,9 15,1 19,2 16,2 15 8 WSW 1016,2 10 12 0,0
01.08.2020 09:00:00 18,5 16,0 - - 13 7 W 1016,0 15 12 0,0
01.08.2020 08:00:00 17,8 16,4 - - 13 7 SW 1015,8 10 30 0,0
01.08.2020 07:00:00 15,6 15,1 - - 8 4 WSW 1015,9 10 12 0,0
01.08.2020 06:00:00 13,8 13,0 - - 9 5 SW 1016,0 10 0 0,0
01.08.2020 05:00:00 13,5 12,7 - - 5 3 WSW 1015,7 19 0 0,0
01.08.2020 04:00:00 14,4 13,2 - - 5 3 WSW 1015,3 30 0 0,0
01.08.2020 03:00:00 14,3 12,7 - - 4 2 W 1015,1 29 0 0,0
01.08.2020 02:00:00 16,7 14,2 - - 11 6 W 1014,8 30 0 0,0
01.08.2020 01:00:00 18,7 15,9 - - 13 7 WNW 1014,3 35 - 0,0
01.08.2020 00:00:00 18,6 17,3 - - 16 9 WSW 1013,7 19 0 0,0
31.07.2020 23:00:00 18,6 17,4 - - 18 10 W 1013,3 21 0 0,0
31.07.2020 22:00:00 18,8 17,3 - - 22 12 WSW 1013,0 10 0 0,0
31.07.2020 21:00:00 19,1 17,3 - - 22 12 WSW 1012,6 10 0 0,0
31.07.2020 20:00:00 19,4 17,3 - - 28 15 W 1012,0 10 18 0,0
31.07.2020 19:00:00 21,7 17,7 - - 18 10 WSW 1011,7 10 18 0,0
31.07.2020 18:00:00 21,0 17,2 - - 16 9 SW 1011,6 10 0 0,0
31.07.2020 17:00:00 22,2 16,6 - - 16 9 SW 1010,7 10 0 0,0
31.07.2020 16:00:00 24,0 16,5 - - 18 10 SW 1010,5 10 6 0,0
31.07.2020 15:00:00 27,3 17,1 - - 16 9 S 1010,1 10 60 0,0
31.07.2020 14:00:00 25,1 15,2 - - 15 8 S 1010,0 26 60 0,0
31.07.2020 13:00:00 24,9 13,9 - - 22 12 S 1010,1 10 60 0,0
31.07.2020 12:00:00 26,4 13,3 - - 18 10 S 1010,1 30 60 0,0
31.07.2020 11:00:00 26,7 10,6 - - 22 12 SSE 1010,1 10 60 0,0
31.07.2020 10:00:00 26,5 10,6 18,7 16,2 21 11 SE 1010,3 10 60 0,0
31.07.2020 09:00:00 25,8 11,7 - - 21 11 SE 1010,3 10 60 0,0
31.07.2020 08:00:00 23,2 14,5 - - 5 3 - 1010,4 10 60 0,0
31.07.2020 07:00:00 17,3 15,3 - - 4 2 - 1010,8 10 30 0,0
31.07.2020 06:00:00 13,1 11,6 - - 2 1 NE 1011,3 27 0 0,0
31.07.2020 05:00:00 13,9 12,1 - - 5 3 ENE 1011,3 29 0 0,0
31.07.2020 04:00:00 13,3 11,4 - - 4 2 N 1012,1 25 0 0,0
31.07.2020 03:00:00 14,5 10,9 - - 4 2 ENE 1012,5 27 0 0,0
31.07.2020 02:00:00 17,3 14,0 - - 9 5 E 1013,2 29 0 0,0
31.07.2020 01:00:00 13,7 10,6 - - 4 2 E 1014,1 30 - 0,0
31.07.2020 00:00:00 14,0 10,7 - - 4 2 NNE 1014,5 30 0 0,0
30.07.2020 23:00:00 15,3 11,1 - - 4 2 N 1014,8 30 0 0,0
30.07.2020 22:00:00 17,0 11,8 - - 2 1 E 1014,7 30 0 0,0
30.07.2020 21:00:00 21,3 12,2 - - 5 3 ESE 1014,6 10 24 0,0
30.07.2020 20:00:00 23,4 12,9 - - 9 5 SSE 1014,8 10 60 0,0
30.07.2020 19:00:00 24,8 11,5 - - 9 5 SSE 1015,2 10 60 0,0
30.07.2020 18:00:00 23,9 11,6 - - 11 6 SSE 1015,8 10 60 0,0
30.07.2020 17:00:00 23,8 10,3 - - 15 8 SSE 1016,5 10 60 0,0
30.07.2020 16:00:00 23,9 10,1 - - 15 8 SSE 1017,0 40 60 0,0
30.07.2020 15:00:00 23,1 10,0 - - 15 8 SE 1017,6 10 60 0,0
30.07.2020 14:00:00 22,1 9,7 - - 16 9 SE 1017,9 10 60 0,0
30.07.2020 13:00:00 21,5 9,6 - - 15 8 SSE 1018,5 10 60 0,0
30.07.2020 12:00:00 20,8 10,2 - - 15 8 SE 1019,1 10 60 0,0
30.07.2020 11:00:00 19,7 10,5 - - 15 8 SE 1019,2 40 60 0,0
30.07.2020 10:00:00 18,7 11,6 17,7 16,2 15 8 SSE 1019,5 10 60 0,0
30.07.2020 09:00:00 17,9 14,0 - - 13 7 SSE 1019,4 10 54 0,0
30.07.2020 08:00:00 15,9 14,8 - - 0 0 N 1019,3 10 48 0,0
30.07.2020 07:00:00 10,8 10,3 - - 2 1 N 1019,4 27 6 0,0
30.07.2020 06:00:00 9,0 8,3 - - 4 2 N 1019,1 29 0 0,0
30.07.2020 05:00:00 9,8 9,2 - - 2 1 NE 1019,1 27 0 0,0
30.07.2020 04:00:00 9,9 9,2 - - 0 0 N 1019,4 24 0 0,0
30.07.2020 03:00:00 10,7 10,0 - - 5 3 NE 1019,7 25 0 0,0
30.07.2020 02:00:00 11,4 10,2 - - 4 2 ENE 1020,0 30 0 0,0
30.07.2020 01:00:00 11,1 9,3 - - 2 1 SE 1020,2 30 - 0,0
30.07.2020 00:00:00 13,4 10,9 - - 0 0 N 1020,4 30 0 0,0
29.07.2020 23:00:00 13,4 10,0 - - 2 1 SSW 1020,5 30 0 0,0
29.07.2020 22:00:00 14,7 10,9 - - 5 3 WSW 1020,5 35 0 0,0
29.07.2020 21:00:00 15,5 10,7 - - 9 5 WSW 1020,4 10 12 0,0
29.07.2020 20:00:00 17,5 9,9 - - 13 7 WSW 1020,2 40 48 0,0
29.07.2020 19:00:00 18,3 9,3 - - 13 7 SW 1020,0 10 18 0,0
29.07.2020 18:00:00 18,9 9,5 - - 16 9 S 1020,3 10 60 0,0
29.07.2020 17:00:00 19,9 10,5 - - 15 8 SW 1020,3 10 54 0,0
29.07.2020 16:00:00 20,1 11,4 - - 18 10 S 1020,6 10 54 0,0

tt = temperature
td = dewpoint
tt -20cm = temperature -20cm
tt -100cm = temperature -100cm
ff = wind speed
dd = wind direction
ppp = reduced air pressure
vv = visibility
sd = sunshine duration
rr = precipitation

Next stations